Погода в Новоселках

Россия / Тверская область     55°50′55″N   31°48′41″E
темп.,
°C
ветер,
м/с
пор.,
м/с
влажн.,
%
обл.,
%
осадки,
мм/ч
давл.,
гПа
погр.,
м
20 января, чт
чт2000:00−1юз51295100 0.0 1008558
03:00−1юз51294100 0.0 1006466
06:00−1ююз51295100 0.0 1003459
09:00−1ю61593100 0.0 1000524
12:00−1ю61693100 0.2 997851
15:00−1ююз61396100 0.6 9941117
18:00−2ююз61395100 1.9 994858
21:00−2юз51192100 2.4 993887
21 января, пт
пт2100:00−3ююз51189100 0.1 994755
03:00−4ю5129198 0.2 994767
06:00−5ю51187100 0.1 992795
09:00−7ююв5129298 0.2 992518
12:00−6ююв41092100 0.1 992494
15:00−6юв4993100 0.4 992476
18:00−6в3895100 0.6 993405
21:00−6всв3696100 1.3 994312
22 января, сб
сб2200:00−7св3696100 0.8 997283
03:00−8ссв3795100 1.2 999264
06:00−9ссв389578 0.3 1001261
09:00−14с269884 0.3 1005114
12:00−9ссв259592 0.0 1007170
15:00−6с259387 0.1 1009337
18:00−6с3795100 0.3 1012442
21:00−8с3795100 0.7 1014348
23 января, вс
вс2300:00−9с269686 0.3 1017233
03:00−13с269890 0.3 1019107
06:00−15ссв259876 0.1 102185
09:00−17ссв249989 0.1 102472
12:00−11всв249496 0.0 1026166
15:00−8св239186 0.0 1028232
18:00−14св2210086 0.0 103119
21:00−15всв1210084 0.0 103236
24 января, пн
пн2400:00−19всв1110070 0.0 10349
03:00−20в1110066 0.0 103511
06:00−21св1110077 0.0 103412
09:00−20вюв2310092 0.0 103449
12:00−12юв129484 0.0 1033124
15:00−9ююв129166 0.0 1031182
18:00−16ю1110077 0.0 10309
21:00−17ююв2210094 0.0 102938